Location: Bremen
(53.0793°N, 8.8017°E)
Time: 14:45:14
(UTC+01:00)

Explorer 7 - Visible Passes

Search period start: 08 December 2021 00:00
Search period end: 18 December 2021 00:00
Orbit: 483 x 675 km, 50.3° (Epoch: 07 December)

Date Brightness Start Highest point End Pass type
(mag) Time Alt. Az. Time Alt. Az. Time Alt. Az.
08 Dec 8.9 04:56:18 25° SE 04:56:18 25° SE 04:59:02 10° E visible
08 Dec 7.4 06:32:34 18° WSW 06:35:31 54° S 06:39:29 10° E visible
09 Dec 8.6 05:00:23 29° SE 05:00:23 29° SE 05:03:09 10° E visible
09 Dec 7.2 06:36:39 20° WSW 06:39:28 58° S 06:43:27 10° E visible
10 Dec 8.4 05:04:24 34° ESE 05:04:24 34° ESE 05:07:11 10° E visible
10 Dec 7.2 06:40:40 21° WSW 06:43:26 60° S 06:47:25 10° E visible
11 Dec 8.2 05:08:21 37° ESE 05:08:21 37° ESE 05:11:12 10° E visible
11 Dec 7.2 06:44:37 20° W 06:47:23 58° S 06:51:22 10° ESE visible
12 Dec 8.1 05:12:16 40° ESE 05:12:16 40° ESE 05:15:11 10° E visible
12 Dec 7.3 06:48:31 20° W 06:51:19 53° SSW 06:55:16 10° ESE visible
13 Dec 7.9 05:16:09 43° ESE 05:16:09 43° ESE 05:19:09 10° E visible
13 Dec 7.5 06:52:25 18° W 06:55:14 46° SSW 06:59:07 10° SE visible
14 Dec 7.8 05:20:02 45° SE 05:20:02 45° SE 05:23:06 10° ESE visible
14 Dec 7.8 06:56:17 17° W 06:59:07 38° SSW 07:02:53 10° SE visible
15 Dec 7.8 05:23:54 45° SE 05:23:54 45° SE 05:27:02 10° ESE visible
15 Dec 8.1 07:00:10 15° W 07:02:57 30° SSW 07:06:32 10° SE visible
16 Dec 7.8 05:27:47 43° SSE 05:27:47 43° SSE 05:30:55 10° ESE visible
16 Dec 8.4 07:04:03 13° W 07:06:45 24° SSW 07:10:00 10° SSE visible
17 Dec 7.9 05:31:42 38° SSE 05:31:42 38° SSE 05:34:45 10° SE visible
17 Dec 8.8 07:07:57 11° WSW 07:10:29 18° SW 07:13:14 10° S visible
